Regional Weather Roundup
Issued by NWS

Home | Current Version | Previous Version | Text Only | Print | Product List | Glossary Off
Versions: 1 2 3 4 5 6 7 8 9 10 11 12 13 14 15 16 17 18 19 20 21 22 23 24 25 26 27 28 29 30 31 32 33 34 35 36 37 38 39 40 41 42 43 44 45 46 47 48 49 50

000
ASUS43 KOAX 272302
RWRNE

WEATHER ROUNDUP FOR NEBRASKA
NATIONAL WEATHER SERVICE OMAHA NE
600 PM CDT WED JUL 27 2016

NOTES: SATELLITE DATA IS BEING USED TO AUGMENT CLOUD COVER ABOVE
       12000 FEET.
       "FAIR" INDICATES FEW OR NO CLOUDS BELOW 12,000 FEET WITH NO
       SIGNIFICANT WEATHER AND/OR OBSTRUCTIONS TO VISIBILITY.

  * THESE STATIONS DO NOT REPORT WEATHER SUCH AS RAIN...SNOW OR FOG.

NEZ001>004-019>022-054>056-280000-
NEBRASKA PANHANDLE

CITY           SKY/WX    TMP DP  RH WIND       PRES   REMARKS
SCOTTSBLUFF    SUNNY     89  53  29 E9        30.08F
ALLIANCE       SUNNY     86  53  32 NE15      30.10F
CHADRON        SUNNY     84  57  39 NE15      30.08F
KIMBALL        CLOUDY    87  56  34 E10       30.14S
SIDNEY         MOSUNNY   87  58  37 SE10      30.12S
$$

NEZ057>060-069>072-079>082-280000-
SOUTHWEST NEBRASKA

CITY           SKY/WX    TMP DP  RH WIND       PRES   REMARKS
NORTH PLATTE   SUNNY     88  60  38 CALM      30.05R
IMPERIAL       SUNNY     88  57  34 SE3       30.05F
LEXINGTON      CLOUDY    83  68  61 E5        30.04R
MCCOOK         SUNNY     88  61  40 SE9       30.02S
OGALLALA       SUNNY     87  53  31 E8        30.07F
$$

NEZ005>010-023>029-035>040-094-280000-
NORTH CENTRAL NEBRASKA

CITY           SKY/WX    TMP DP  RH WIND       PRES   REMARKS
VALENTINE      PTSUNNY   77  60  55 MISG      30.06F
AINSWORTH      CLOUDY    64  62  93 E12       30.08F
BROKEN BOW     MOSUNNY   83  64  52 CALM      30.03S
O`NEILL        MOSUNNY   80  67  63 CALM      30.03R
ORD            SUNNY     86  62  44 CALM      30.00S
THEDFORD       MOSUNNY   87  62  44 N14G25    30.07S
$$

NEZ041-046>049-061>064-073>077-083>087-280000-
SOUTH CENTRAL NEBRASKA

CITY           SKY/WX    TMP DP  RH WIND       PRES   REMARKS
GRAND ISLAND   SUNNY     87  62  43 E6        30.00R
AURORA         SUNNY     84  64  50 NE3       29.99S
HASTINGS       SUNNY     85  68  56 NE7       30.00F
HEBRON         SUNNY     88  62  40 N6        29.96F
HOLDREGE       SUNNY     82  64  56 E5        30.02S
KEARNEY *      SUNNY     90  27  10 NW3       30.03R
YORK           CLOUDY    82  68  61 NE7       29.98S
$$

NEZ011>018-030>034-042>045-280000-
NORTHEAST NEBRASKA

CITY           SKY/WX    TMP DP  RH WIND       PRES   REMARKS
NORFOLK        CLOUDY    83  63  50 E5        29.97F
ALBION         SUNNY     82  66  56 E5        30.00S
BLAIR          SUNNY     84  70  62 CALM      29.95F
FREMONT        SUNNY     85  66  52 NW5       29.96S
TEKAMAH        SUNNY     86  66  51 NW6       29.94F
WAYNE          SUNNY     83  68  59 NW6       29.98S
$$

NEZ050>053-065>068-078-088>093-280000-
SOUTHEAST NEBRASKA

CITY           SKY/WX    TMP DP  RH WIND       PRES   REMARKS
LINCOLN        CLOUDY    88  68  51 N7        29.95F HX  91
OMAHA EPPLEY   MOSUNNY   86  69  56 N6        29.93F HX  90
BEATRICE       SUNNY     87  67  50 N9        29.95S HX  90
FALLS CITY     MOSUNNY   88  69  53 W9        29.91F HX  92
NEBRASKA CITY  MOSUNNY   85  68  57 N5        29.94F
PLATTSMOUTH    SUNNY     85  66  52 W5        29.94S
$$

NEZ044-045-051>053-067-280000-
OMAHA AREA

CITY           SKY/WX    TMP DP  RH WIND       PRES   REMARKS
OMAHA EPPLEY   MOSUNNY   86  69  56 N6        29.93F HX  90
BLAIR          SUNNY     84  70  62 CALM      29.95F
FREMONT        SUNNY     85  66  52 NW5       29.96S
MILLARD        MOSUNNY   86  69  57 CALM      29.93F HX  90
OFFUTT AFB     SUNNY     86  70  58 VRB3      29.92F HX  90
PLATTSMOUTH    SUNNY     85  66  52 W5        29.94S
WAHOO          FAIR      85  68  56 NW5       29.95F
$$




USA.gov is the U.S. government's official web portal to all federal, state and local government web resources and services.